Tracking 29528 objects as of 12-Sep-2024
HD Live streaming from Space Station
objects crossing your sky now

FENGYUN 1C DEB

Track FENGYUN 1C DEB now!
10-day predictions


NORAD ID: 41010
Int'l Code: 1999-025EXQ
Perigee: 806.4 km
Apogee: 863.4 km
Inclination: 99.2 °
Period: 101.5 minutes
Semi major axis: 7205 km
RCS: Unknown
Launch date: May 10, 1999
Source: People's Republic of China (PRC)
Launch site: Taiyaun Space Center, China (TSC)

Note: This is SATELLITE DEBRIS
Your satellite tracking list
Your tracking list is empty




NASA's NSSDC Master Catalog

Two Line Element Set (TLE):
1 41010U 99025EXQ 24238.40792234  .00006787  00000-0  32295-2 0  9992
2 41010  99.2407 107.9284 0039550 319.0498 216.3336 14.19288890618454
Source of the keplerian elements: AFSPC